FENGYUN 1C DEB

Satellite information

Favourite Embed

Satellite Type and Status

DEBRISIN ORBIT

Key statistics

Satellite FENGYUN 1C DEB at a glance.

Uptime

9715

Days in orbit

Revolutions

≈ 13.6

Per day

Orbit

SSO

Sun Synchronous Orbit

Inclination

98.4

Latest

Satellite identification and parameters

Extended collection of information and parameters for FENGYUN 1C DEB.

Object identification

Identified? True

Debris? True

Object name: FENGYUN 1C DEB

International designator: 1999-025CMB

Object number (NORAD): 31924

Object ID (CCSDS): 31924

Country: PEOPLES REPUBLIC OF CHINA (PRC)

Current information (Y/N): Y

RCS size: SMALL

Orbital parameters

Period: 105.579 minutes

Inclination: 98.3997 deg

SMA: 7399.679 km

Apoapsis: 1223.459 km

Periapsis: 819.628 km

RAAN: 142.9288 deg

Eccentricy: 0.02728704

Argument of periapsis: 100.423 deg

Mean anomaly: 262.7788 deg

Mean motion: 13.6390293 rev/day

Mean motion (dot): 0.000021 rev/day2

B* drag term: 0.0020856968 1/REarth

Two-line elements (TLE)

Creation date: Dec. 11, 2025, 7:14 p.m.

Reference frame: TEME

Reference center: EARTH

Epoch: Dec. 11, 2025, 9:42 a.m. UTC

TLE line 0: 0 FENGYUN 1C DEB

TLE line 1: 1 31924U 99025CMB 25345.40427085 .00002100 00000-0 20857-2 0 9990

TLE line 2: 2 31924 98.3997 142.9288 0272870 100.4230 262.7788 13.63902930914499

Live tracking on map

Real-time ground track for satellite FENGYUN 1C DEB.

In-orbit conjunctions

A list of the most updated potential collisions computed for object FENGYUN 1C DEB.

Target Orbit TCA Probability of collision Miss distance Type
NOAA 16 DEB SSO 2025-09-03 18:50:45 0.0001068209 461.0 (m) DEBRIS
SCOUT A R/B SSO 2024-11-13 05:23:30 0.0001136627 540.0 (m) ROCKET BODY
CZ-6A DEB LEO 2024-10-23 16:37:35 0.000142283 288.0 (m) DEBRIS

Associated space launch

Chinese polar orbiting meteorological satellite

FENGYUN 1C DEB was lifted into orbit during the mission ‘Long March 4B | Feng Yun 1C’, on board a Long March 4B space rocket.

The launch took place on May 10, 1999, 1:33 a.m. from Launch Complex 7.

For more information about the launch, click the button.

Launch to space Long March 4B | Feng Yun 1C
Long March 4B | Feng Yun 1C

Agency: N/A

Status: Launch Successful

Launch date: May 10, 1999, 1:33 a.m. UTC

Rocket: Long March 4B

Launch pad: Launch Complex 7

Location: Taiyuan Satellite Launch Center, People's Republic of China

...

Latest news about this satellite

There are no fresh news available about this satellite. Check back as we update our databases every day.


Newsletter sign-up

Weekly statistics, charts and insights to help you stay on top of the space industry.